datetime,unregulated inflow
1968-12-02,458.943214
1968-12-03,299.575022
1968-12-04,356.633255
1968-12-05,450.150725
1968-12-06,241.386691
1968-12-07,433.468225
1968-12-08,319.740256
1968-12-09,438.307478
1968-12-10,288.219602
1968-12-11,517.764554
1968-12-12,383.872305
1968-12-13,453.187297
1968-12-14,469.749725
1968-12-15,310.240074
1968-12-16,308.377174
1968-12-17,325.010869
1968-12-18,358.250749
1968-12-19,329.383034
1968-12-20,384.995141
1968-12-21,412.123627
1968-12-22,311.158093
1968-12-23,396.513898
1968-12-24,395.062603
1968-12-25,401.581263
1968-12-26,473.798262
1968-12-27,400.939268
1968-12-28,410.543059
1968-12-29,390.243506
1968-12-30,324.145132
1968-12-31,424.654781
1969-01-01,404.165088
1969-01-02,276.338505
1969-01-03,435.398486
1969-01-04,304.352269
1969-01-05,300.845256
1969-01-06,477.331277
1969-01-07,287.978658
1969-01-08,292.084308
1969-01-09,413.456513
1969-01-10,375.559057
1969-01-11,191.232199
1969-01-12,458.324422
1969-01-13,329.093594
1969-01-14,379.219161
1969-01-15,621.736997
1969-01-16,320.125459
1969-01-17,425.669484
1969-01-18,360.500668
1969-01-19,379.888604
1969-01-20,420.749794
1969-01-21,451.071605
1969-01-22,630.894471
1969-01-23,457.878783
1969-01-24,345.566475
1969-01-25,615.260494
1969-01-26,291.414373
1969-01-27,477.373804
1969-01-28,388.81812
1969-01-29,398.234787
1969-01-30,339.415108
1969-01-31,209.83008
1969-02-01,353.045465
1969-02-02,209.463633
1969-02-03,337.17759
1969-02-04,192.034299
1969-02-05,400.263856
1969-02-06,377.691243
1969-02-07,497.638924
1969-02-08,379.34351
1969-02-09,328.243366
1969-02-10,378.043243
1969-02-11,322.380055
1969-02-12,294.631422
1969-02-13,429.358237
1969-02-14,442.582773
1969-02-15,440.07754
1969-02-16,418.760852
1969-02-17,402.236581
1969-02-18,291.889029
1969-02-19,331.229534
1969-02-20,447.910068
1969-02-21,365.161659
1969-02-22,360.987819
1969-02-23,395.307547
1969-02-24,436.190986
1969-02-25,488.813755
1969-02-26,470.661127
1969-02-27,421.701969
1969-02-28,326.503737
1969-03-01,352.277275
1969-03-02,368.092253
1969-03-03,362.159521
1969-03-04,419.034414
1969-03-05,415.481766
1969-03-06,289.740627
1969-03-07,539.381822
1969-03-08,415.47315
1969-03-09,379.819644
1969-03-10,300.75254
1969-03-11,328.457538
1969-03-12,369.397967
1969-03-13,300.688442
1969-03-14,264.757373
1969-03-15,351.063446
1969-03-16,347.090485
1969-03-17,294.750171
1969-03-18,151.394666
1969-03-19,468.336001
1969-03-20,383.692504
1969-03-21,320.384004
1969-03-22,414.278369
1969-03-23,429.361744
1969-03-24,348.840853
1969-03-25,189.421902
1969-03-26,430.188186
1969-03-27,321.009966
1969-03-28,364.657277
1969-03-29,428.751938
1969-03-30,500.91564
1969-03-31,570.526935
1969-04-01,1142.97625
1969-04-02,936.262921
1969-04-03,1105.27118
1969-04-04,1593.26545
1969-04-05,1537.83293
1969-04-06,1689.93098
1969-04-07,1552.01583
1969-04-08,1180.35723
1969-04-09,1248.72331
1969-04-10,1439.85455
1969-04-11,1421.37909
1969-04-12,1785.15109
1969-04-13,1649.09296
1969-04-14,1738.56722
1969-04-15,1616.13563
1969-04-16,1517.84128
1969-04-17,1411.36825
1969-04-18,1331.65337
1969-04-19,1539.65573
1969-04-20,1962.49516
1969-04-21,2610.38323
1969-04-22,2902.55219
1969-04-23,3556.39033
1969-04-24,3788.92898
1969-04-25,3074.12382
1969-04-26,4271.12755
1969-04-27,2356.73455
1969-04-28,2344.16312
1969-04-29,2578.02447
1969-04-30,2757.86168
1969-05-01,2906.21134
1969-05-02,3455.26472
1969-05-03,3637.70449
1969-05-04,3751.41138
1969-05-05,3398.92873
1969-05-06,3219.39284
1969-05-07,3133.26719
1969-05-08,2889.91626
1969-05-09,2628.33532
1969-05-10,2934.48211
1969-05-11,3316.50087
1969-05-12,3595.66538
1969-05-13,3708.98183
1969-05-14,3578.26891
1969-05-15,4057.7268
1969-05-16,3696.95469
1969-05-17,3784.92765
1969-05-18,4133.14334
1969-05-19,4522.05205
1969-05-20,4721.72483
1969-05-21,5264.46307
1969-05-22,5485.30791
1969-05-23,4899.04194
1969-05-24,5160.45746
1969-05-25,5109.34014
1969-05-26,5257.87837
1969-05-27,5925.13306
1969-05-28,5884.95134
1969-05-29,5522.82355
1969-05-30,6014.19682
1969-05-31,5881.79439
1969-06-01,5369.86548
1969-06-02,4556.16752
1969-06-03,4284.50373
1969-06-04,3628.39094
1969-06-05,3945.7648
1969-06-06,4273.39433
1969-06-07,4486.14049
1969-06-08,4328.2993
1969-06-09,4214.39891
1969-06-10,3891.17765
1969-06-11,3894.75039
1969-06-12,3435.16253
1969-06-13,3071.61948
1969-06-14,2929.05001
1969-06-15,3078.85974
1969-06-16,3200.17172
1969-06-17,3686.31549
1969-06-18,3554.40714
1969-06-19,3262.16457
1969-06-20,2998.47021
1969-06-21,2900.57688
1969-06-22,2765.81954
1969-06-23,2839.36195
1969-06-24,3437.8584
1969-06-25,3949.66668
1969-06-26,4051.30581
1969-06-27,3248.53138
1969-06-28,3055.75249
1969-06-29,3078.31027
1969-06-30,3272.95123
1969-07-01,3139.48976
1969-07-02,3186.27365
1969-07-03,3180.40237
1969-07-04,3595.08465
1969-07-05,3457.97831
1969-07-06,3205.79092
1969-07-07,2693.07007
1969-07-08,2521.69317
1969-07-09,2084.90041
1969-07-10,2133.93852
1969-07-11,1888.27835
1969-07-12,1895.51788
1969-07-13,1967.99607
1969-07-14,2059.09791
1969-07-15,1986.20836
1969-07-16,2139.83467
1969-07-17,2037.22401
1969-07-18,1847.50939
1969-07-19,2089.84237
1969-07-20,2337.09025
1969-07-21,2260.3072
1969-07-22,2172.46643
1969-07-23,1763.98974
1969-07-24,1956.46989
1969-07-25,1982.37861
1969-07-26,1865.35476
1969-07-27,1524.79635
1969-07-28,1620.67535
1969-07-29,2047.06548
1969-07-30,1443.44341
1969-07-31,1666.07524
1969-08-01,1498.10405
1969-08-02,1419.81723
1969-08-03,1242.16385
1969-08-04,1365.8289
1969-08-05,1138.0733
1969-08-06,1749.30846
1969-08-07,598.934825
1969-08-08,1118.71752
1969-08-09,825.698396
1969-08-10,1105.66814
1969-08-11,967.124687
1969-08-12,1560.36388
1969-08-13,692.961479
1969-08-14,1378.11797
1969-08-15,962.768061
1969-08-16,819.328611
1969-08-17,1000.34832
1969-08-18,970.651702
1969-08-19,858.112297
1969-08-20,995.4402
1969-08-21,964.227142
1969-08-22,1098.6791
1969-08-23,714.883019
1969-08-24,705.082165
1969-08-25,854.43967
1969-08-26,818.528603
1969-08-27,743.427414
1969-08-28,663.218764
1969-08-29,758.55944
1969-08-30,759.110872
1969-08-31,536.696357
1969-09-01,721.228372
1969-09-02,452.525393
1969-09-03,442.75525
1969-09-04,444.393977
1969-09-05,502.916245
1969-09-06,349.651262
1969-09-07,458.605123
1969-09-08,437.636527
1969-09-09,722.048566
1969-09-10,595.373346
1969-09-11,506.293585
1969-09-12,693.582456
1969-09-13,404.522073
1969-09-14,458.048828
1969-09-15,510.325567
1969-09-16,595.007714
1969-09-17,648.629309
1969-09-18,633.472727
1969-09-19,599.330675
1969-09-20,706.199432
1969-09-21,623.598636
1969-09-22,821.108581
1969-09-23,825.169489
1969-09-24,679.554218
1969-09-25,619.410025
1969-09-26,584.857784
1969-09-27,525.118733
1969-09-28,506.716022
1969-09-29,475.779542
1969-09-30,641.215494
1969-10-01,574.439953
1969-10-02,721.960682
1969-10-03,1172.62499
1969-10-04,1164.96894
1969-10-05,890.04511
1969-10-06,836.816534
1969-10-07,1014.89568
1969-10-08,922.902926
1969-10-09,1123.03962
1969-10-10,1274.70933
1969-10-11,1212.03039
1969-10-12,870.538734
1969-10-13,1039.29596
1969-10-14,865.05481
1969-10-15,1547.26711
1969-10-16,1095.93535
1969-10-17,809.917329
1969-10-18,246.762821
1969-10-19,314.711141
1969-10-20,1785.31271
1969-10-21,1826.51297
1969-10-22,1211.30787
1969-10-23,1192.6191
1969-10-24,873.698886
1969-10-25,871.121677
1969-10-26,858.131991
1969-10-27,924.261937
1969-10-28,1274.37601
1969-10-29,669.735209
1969-10-30,789.663934
1969-10-31,802.84939
1969-11-01,772.907151
1969-11-02,904.668907
1969-11-03,646.645505
1969-11-04,728.213534
1969-11-05,816.463253
1969-11-06,1117.70648
1969-11-07,590.910249
1969-11-08,617.934081
1969-11-09,413.767863
1969-11-10,786.269484
1969-11-11,793.176363
1969-11-12,639.175562
1969-11-13,925.371141
1969-11-14,1157.38834
1969-11-15,467.360532
1969-11-16,433.120072
1969-11-17,808.133297
1969-11-18,501.278102
1969-11-19,358.847109
1969-11-20,515.186883
1969-11-21,245.405995
1969-11-22,612.207551
1969-11-23,502.579169
1969-11-24,511.518964
1969-11-25,166.209942
1969-11-26,16.3406582
1969-11-27,113.149881
1969-11-28,288.430082
1969-11-29,528.346091
1969-11-30,432.431458
1969-12-01,389.124916
1969-12-02,617.357046
1969-12-03,663.298587
1969-12-04,569.513678
1969-12-05,660.332728
1969-12-06,498.892387
1969-12-07,514.095927
1969-12-08,501.654966
1969-12-09,216.676015
1969-12-10,646.076102
1969-12-11,356.289902
1969-12-12,626.228403
1969-12-13,452.004702
1969-12-14,403.233437
1969-12-15,585.591694
1969-12-16,363.635034
1969-12-17,239.775489
1969-12-18,349.155772
1969-12-19,339.360734
1969-12-20,224.639248
1969-12-21,167.527641
1969-12-22,908.253712
1969-12-23,822.420696
1969-12-24,415.14269
1969-12-25,429.636753
1969-12-26,416.587278
1969-12-27,413.403985
1969-12-28,492.215097
1969-12-29,56.6557551
1969-12-30,317.189787
1969-12-31,220.351705
1970-01-01,446.553304
1970-01-02,314.717264
1970-01-03,318.098113
1970-01-04,307.080076
1970-01-05,348.237262
1970-01-06,340.272383
1970-01-07,354.309206
1970-01-08,307.574673
1970-01-09,279.172229
1970-01-10,290.513186
1970-01-11,382.350572
1970-01-12,549.08956
1970-01-13,415.840905
1970-01-14,491.640709
1970-01-15,660.349961
1970-01-16,470.202103
1970-01-17,504.13192
1970-01-18,525.627947
1970-01-19,373.419025
1970-01-20,279.79376
1970-01-21,658.115427
1970-01-22,512.155727
1970-01-23,541.88444
1970-01-24,381.593337
1970-01-25,646.930514
1970-01-26,1174.34969
1970-01-27,966.734807
1970-01-28,98.4329447
1970-01-29,134.759833
1970-01-30,233.714761
1970-01-31,80.9427671
1970-02-01,293.886742
1970-02-02,430.609853
1970-02-03,368.114286
1970-02-04,461.03875
1970-02-05,324.723952
1970-02-06,557.833891
1970-02-07,307.345699
1970-02-08,427.874507
1970-02-09,326.745481
1970-02-10,467.199102
1970-02-11,388.433625
1970-02-12,488.06012
1970-02-13,559.768767
1970-02-14,504.856599
1970-02-15,598.217594
1970-02-16,399.258445
1970-02-17,538.376934
1970-02-18,540.008707
1970-02-19,469.338889
1970-02-20,323.145137
1970-02-21,551.816013
1970-02-22,726.379898
1970-02-23,377.405772
1970-02-24,459.842185
1970-02-25,595.88379
1970-02-26,632.064604
1970-02-27,498.008925
1970-02-28,500.256413
1970-03-01,596.740542
1970-03-02,701.182933
1970-03-03,639.535101
1970-03-04,608.336752
1970-03-05,656.123377
1970-03-06,515.64043
1970-03-07,632.081713
1970-03-08,587.8674
1970-03-09,587.822473
1970-03-10,757.878273
1970-03-11,541.71821
1970-03-12,518.652016
1970-03-13,604.724253
1970-03-14,519.856244
1970-03-15,622.944117
1970-03-16,747.400929
1970-03-17,532.365272
1970-03-18,664.353817
1970-03-19,451.550724
1970-03-20,498.212758
1970-03-21,671.444589
1970-03-22,706.935373
1970-03-23,464.2626
1970-03-24,556.249753
1970-03-25,795.115178
1970-03-26,492.409176
1970-03-27,596.400635
1970-03-28,638.457838
1970-03-29,347.837811
1970-03-30,589.500219
1970-03-31,459.79058
1970-04-01,464.408829
1970-04-02,487.348427
1970-04-03,445.232758
1970-04-04,465.632812
1970-04-05,528.662919
1970-04-06,680.078941
1970-04-07,881.346814
1970-04-08,1064.72328
1970-04-09,1340.25141
1970-04-10,1649.95544
1970-04-11,1674.54613
1970-04-12,961.501366
1970-04-13,813.178906
1970-04-14,839.182771
1970-04-15,719.949984
1970-04-16,909.054582
1970-04-17,1304.07423
1970-04-18,1459.75204
1970-04-19,1119.5576
1970-04-20,791.711189
1970-04-21,729.552051
1970-04-22,768.562834
1970-04-23,868.043993
1970-04-24,805.02041
1970-04-25,1349.81187
1970-04-26,2026.32103
1970-04-27,2993.64099
1970-04-28,3125.35043
1970-04-29,2190.16693
1970-04-30,1590.08733
1970-05-01,1459.47324
1970-05-02,1557.27856
1970-05-03,1823.23109
1970-05-04,2784.16625
1970-05-05,3801.1058
1970-05-06,4548.11857
1970-05-07,5369.2013
1970-05-08,5425.25
1970-05-09,5049.25072
1970-05-10,4768.23129
1970-05-11,5356.37212
1970-05-12,6877.87379
1970-05-13,7249.55417
1970-05-14,7224.41278
1970-05-15,7056.18052
1970-05-16,7260.16383
1970-05-17,8387.24737
1970-05-18,9712.08304
1970-05-19,9823.06576
1970-05-20,9848.31546
1970-05-21,9409.76698
1970-05-22,9626.95169
1970-05-23,9717.70371
1970-05-24,9166.37741
1970-05-25,8916.18355
1970-05-26,9024.60309
1970-05-27,9156.07152
1970-05-28,9203.02601
1970-05-29,7989.05539
1970-05-30,7798.25231
1970-05-31,7209.96869
1970-06-01,6980.83562
1970-06-02,6141.28137
1970-06-03,6123.81671
1970-06-04,6318.37347
1970-06-05,5911.70124
1970-06-06,5568.50679
1970-06-07,5619.25681
1970-06-08,5754.6739
1970-06-09,5856.66728
1970-06-10,5804.77648
1970-06-11,5890.03979
1970-06-12,5122.50313
1970-06-13,4635.83969
1970-06-14,4223.61522
1970-06-15,4534.54151
1970-06-16,4313.29245
1970-06-17,4500.04398
1970-06-18,4815.4221
1970-06-19,5148.58393
1970-06-20,5302.18796
1970-06-21,5612.41609
1970-06-22,5801.37286
1970-06-23,5903.15995
1970-06-24,5867.6467
1970-06-25,5697.99598
1970-06-26,5320.21094
1970-06-27,4262.9176
1970-06-28,4125.91416
1970-06-29,4713.21603
1970-06-30,4311.67065
1970-07-01,3837.6456
1970-07-02,3102.80866
1970-07-03,3109.46204
1970-07-04,2921.45526
1970-07-05,2984.84786
1970-07-06,3184.74958
1970-07-07,3129.8227
1970-07-08,3343.27613
1970-07-09,3421.19135
1970-07-10,3239.73775
1970-07-11,2498.94509
1970-07-12,2099.73074
1970-07-13,1923.11585
1970-07-14,2146.29209
1970-07-15,1867.62498
1970-07-16,1774.40456
1970-07-17,1747.0567
1970-07-18,1884.05755
1970-07-19,1918.06039
1970-07-20,1824.29309
1970-07-21,1613.8094
1970-07-22,1931.91637
1970-07-23,1842.27964
1970-07-24,1829.84655
1970-07-25,1636.87897
1970-07-26,1773.0261
1970-07-27,1634.82796
1970-07-28,1695.26215
1970-07-29,1501.03859
1970-07-30,1307.49163
1970-07-31,1124.80642
1970-08-01,1283.53102
1970-08-02,1148.02728
1970-08-03,1342.31103
1970-08-04,1268.23615
1970-08-05,1478.68082
1970-08-06,1273.79873
1970-08-07,1467.29632
1970-08-08,1295.3499
1970-08-09,1314.49101
1970-08-10,1263.44115
1970-08-11,1134.03258
1970-08-12,1775.92789
1970-08-13,887.53763
1970-08-14,1304.70604
1970-08-15,1064.45594
1970-08-16,547.939244
1970-08-17,1677.96108
1970-08-18,1296.55357
1970-08-19,1218.06513
1970-08-20,1717.04817
1970-08-21,1936.16129
1970-08-22,1563.68823
1970-08-23,1595.02364
1970-08-24,1319.64789
1970-08-25,1223.0972
1970-08-26,1176.05212
1970-08-27,1156.8886
1970-08-28,1343.59139
1970-08-29,1199.96953
1970-08-30,1326.52209
1970-08-31,1218.04409
1970-09-01,1339.40026
1970-09-02,1169.62042
1970-09-03,1283.76144
1970-09-04,1263.18476
1970-09-05,1595.193
1970-09-06,2949.07489
1970-09-07,2686.64218
1970-09-08,2267.24934
1970-09-09,1869.58971
1970-09-10,1726.86663
1970-09-11,1574.7063
1970-09-12,2562.03834
1970-09-13,3476.6864
1970-09-14,3184.77617
1970-09-15,3146.57173
1970-09-16,2575.91254
1970-09-17,2125.68993
1970-09-18,1960.63998
1970-09-19,1808.95317
1970-09-20,1496.31017
1970-09-21,1093.7695
1970-09-22,1526.71787
1970-09-23,1518.9892
1970-09-24,1393.84377
1970-09-25,1485.76476
1970-09-26,1427.11276
1970-09-27,1093.84496
1970-09-28,999.787286
1970-09-29,1138.16796
1970-09-30,1059.27899
1970-10-01,1331.07572
1970-10-02,965.524117
1970-10-03,988.244865
1970-10-04,1154.42537
1970-10-05,861.106774
1970-10-06,1035.68518
1970-10-07,796.953738
1970-10-08,1056.23725
1970-10-09,1099.03359
1970-10-10,1244.31407
1970-10-11,1051.14905
1970-10-12,1111.41769
1970-10-13,1158.5637
1970-10-14,1132.02047
1970-10-15,1179.86107
1970-10-16,881.943604
1970-10-17,1038.91057
1970-10-18,937.321475
1970-10-19,901.168664
1970-10-20,984.179465
1970-10-21,972.19479
1970-10-22,1030.09583
1970-10-23,973.369354
1970-10-24,1040.70814
1970-10-25,994.222924
1970-10-26,960.908207
1970-10-27,795.688582
1970-10-28,738.260687
1970-10-29,780.85609
1970-10-30,858.203321
1970-10-31,841.337913
1970-11-01,911.605019
1970-11-02,749.285278
1970-11-03,747.476259
1970-11-04,715.043218
1970-11-05,569.508016
1970-11-06,817.461125
1970-11-07,795.491149
1970-11-08,933.285985
1970-11-09,767.754518
1970-11-10,786.34266
1970-11-11,853.012961
1970-11-12,788.600088
1970-11-13,1045.12071
1970-11-14,505.185673
1970-11-15,151.00154
1970-11-16,1113.17932
1970-11-17,801.082098
1970-11-18,850.263244
1970-11-19,1118.13101
1970-11-20,143.094636
1970-11-21,491.532484
1970-11-22,748.568354
1970-11-23,865.184113
1970-11-24,752.246151
1970-11-25,894.511653
1970-11-26,1180.7281
1970-11-27,573.794235
1970-11-28,708.283675
1970-11-29,521.669694
1970-11-30,781.751799
1970-12-01,340.160435
1970-12-02,385.780994
1970-12-03,667.522155
1970-12-04,755.651986
1970-12-05,697.727063
1970-12-06,533.135001
1970-12-07,500.753718
1970-12-08,617.975007
1970-12-09,680.409616
1970-12-10,476.043811
1970-12-11,812.997536
1970-12-12,424.918311
1970-12-13,376.126799
1970-12-14,541.215212
1970-12-15,531.743802
1970-12-16,495.188341
1970-12-17,167.883841
1970-12-18,695.205428
1970-12-19,655.937822
1970-12-20,659.534013
1970-12-21,478.554707
1970-12-22,515.225471
1970-12-23,685.97964
1970-12-24,434.433325
1970-12-25,579.899875
1970-12-26,234.789978
1970-12-27,610.420318
1970-12-28,584.218343
1970-12-29,361.217439
1970-12-30,469.269006
1970-12-31,768.459194
1971-01-01,433.05302
1971-01-02,496.916953
1971-01-03,500.849542
1971-01-04,585.105744
1971-01-05,363.829758
1971-01-06,331.145926
1971-01-07,153.827786
1971-01-08,445.701907
1971-01-09,476.681805
1971-01-10,579.294653
1971-01-11,595.958012
1971-01-12,529.631742
1971-01-13,413.52695
1971-01-14,579.296068
1971-01-15,487.686764
1971-01-16,532.176948
1971-01-17,547.371933
1971-01-18,672.14625
1971-01-19,979.243096
1971-01-20,849.905675
1971-01-21,870.35681
1971-01-22,732.873202
1971-01-23,526.282588
1971-01-24,621.184641
1971-01-25,498.031542
1971-01-26,636.036827
1971-01-27,643.904528
1971-01-28,559.492189
1971-01-29,320.337385
1971-01-30,596.926835
1971-01-31,475.500503
1971-02-01,678.670818
1971-02-02,833.659336
1971-02-03,647.849548
1971-02-04,573.86378
1971-02-05,737.7095
1971-02-06,704.91015
1971-02-07,-64.87986
1971-02-08,557.5871
1971-02-09,504.079362
1971-02-10,568.230304
1971-02-11,550.266462
1971-02-12,550.855621
1971-02-13,562.068044
1971-02-14,545.95304
1971-02-15,533.217777
1971-02-16,583.597858
1971-02-17,437.113835
1971-02-18,730.999808
1971-02-19,572.164986
1971-02-20,569.156108
1971-02-21,431.241878
1971-02-22,359.552032
1971-02-23,430.050758
1971-02-24,500.095445
1971-02-25,483.297366
1971-02-26,316.470617
1971-02-27,360.715887
1971-02-28,273.281501
1971-03-01,297.861273
1971-03-02,266.160634
1971-03-03,73.8963379
1971-03-04,815.476275
1971-03-05,580.248336
1971-03-06,512.447321
1971-03-07,316.867667
1971-03-08,421.804501
1971-03-09,522.048496
1971-03-10,507.781223
1971-03-11,459.70485
1971-03-12,558.911031
1971-03-13,738.662999
1971-03-14,612.739843
1971-03-15,519.048727
1971-03-16,450.861925
1971-03-17,612.501977
1971-03-18,543.639854
1971-03-19,507.279456
1971-03-20,628.02296
1971-03-21,748.383538
1971-03-22,1144.25661
1971-03-23,1425.47693
1971-03-24,1645.27097
1971-03-25,1334.88885
1971-03-26,1610.85209
1971-03-27,2555.28625
1971-03-28,2200.09986
1971-03-29,1699.81381
1971-03-30,1740.25537
1971-03-31,1839.97507
1971-04-01,1481.61646
1971-04-02,1155.76137
1971-04-03,1288.44505
1971-04-04,1248.84689
1971-04-05,1209.18534
1971-04-06,1071.5672
1971-04-07,1454.36744
1971-04-08,1456.63718
1971-04-09,1502.57423
1971-04-10,1847.68934
1971-04-11,2114.44563
1971-04-12,2286.52265
1971-04-13,2717.3395
1971-04-14,2900.25858
1971-04-15,2861.8316
1971-04-16,2679.03143
1971-04-17,2835.21193
1971-04-18,2652.14466
1971-04-19,2286.28534
1971-04-20,2049.42347
1971-04-21,1932.3153
1971-04-22,1944.66074
1971-04-23,1775.67654
1971-04-24,1670.81658
1971-04-25,1529.60735
1971-04-26,1663.54813
1971-04-27,1396.91013
1971-04-28,1460.15749
1971-04-29,1321.33148
1971-04-30,1452.12799
1971-05-01,1435.28369
1971-05-02,1498.72097
1971-05-03,1908.95105
1971-05-04,2190.25408
1971-05-05,2273.09772
1971-05-06,2199.49427
1971-05-07,2053.19869
1971-05-08,2305.07343
1971-05-09,2095.48324
1971-05-10,2031.13006
1971-05-11,2097.32709
1971-05-12,1941.82259
1971-05-13,2206.0797
1971-05-14,2465.91058
1971-05-15,2699.01471
1971-05-16,2927.522
1971-05-17,3327.39733
1971-05-18,3257.92937
1971-05-19,2960.80465
1971-05-20,2656.00444
1971-05-21,2437.37616
1971-05-22,2259.14303
1971-05-23,2430.58788
1971-05-24,2339.38215
1971-05-25,2243.85505
1971-05-26,2394.58055
1971-05-27,2842.75769
1971-05-28,3439.23993
1971-05-29,4178.12941
1971-05-30,4200.0853
1971-05-31,3426.86347
1971-06-01,3347.62038
1971-06-02,3161.63421
1971-06-03,3405.09788
1971-06-04,3036.60572
1971-06-05,4597.38219
1971-06-06,3685.21755
1971-06-07,4188.37277
1971-06-08,4521.63011
1971-06-09,4747.00014
1971-06-10,4765.60558
1971-06-11,4378.04837
1971-06-12,4434.71694
1971-06-13,4149.97632
1971-06-14,4264.33409
1971-06-15,5163.98859
1971-06-16,5559.60608
1971-06-17,6221.32034
1971-06-18,6504.88621
1971-06-19,6017.00322
1971-06-20,6503.26786
1971-06-21,6129.57918
1971-06-22,6088.05433
1971-06-23,6333.00367
1971-06-24,5850.3066
1971-06-25,5611.95181
1971-06-26,5282.97398
1971-06-27,5065.62581
1971-06-28,4730.43649
1971-06-29,4062.67517
1971-06-30,3707.48533
1971-07-01,3315.05336
1971-07-02,3085.50302
1971-07-03,3253.89677
1971-07-04,2952.40417
1971-07-05,2647.25266
1971-07-06,2748.69608
1971-07-07,2918.58633
1971-07-08,2802.80196
1971-07-09,2654.00525
1971-07-10,2516.94518
1971-07-11,2192.75423
1971-07-12,2089.31999
1971-07-13,2020.66343
1971-07-14,2009.28126
1971-07-15,1903.47402
1971-07-16,1787.76621
1971-07-17,1627.98737
1971-07-18,1746.69236
1971-07-19,2056.21138
1971-07-20,2062.92225
1971-07-21,2155.39566
1971-07-22,2167.49517
1971-07-23,2430.46528
1971-07-24,2121.37201
1971-07-25,2087.33089
1971-07-26,1733.89223
1971-07-27,1701.35302
1971-07-28,1557.13024
1971-07-29,1508.36218
1971-07-30,1195.57148
1971-07-31,1243.52372
1971-08-01,1186.20931
1971-08-02,1235.80539
1971-08-03,1047.61878
1971-08-04,1298.05266
1971-08-05,1105.57583
1971-08-06,1257.79807
1971-08-07,1168.43078
1971-08-08,1034.77864
1971-08-09,883.067702
1971-08-10,1209.86627
1971-08-11,713.277772
1971-08-12,822.737523
1971-08-13,961.395018
1971-08-14,1068.54072
1971-08-15,860.553248
1971-08-16,996.352279
1971-08-17,695.574999
1971-08-18,1106.30254
1971-08-19,948.49211
1971-08-20,1095.65853
1971-08-21,1402.70891
1971-08-22,1148.43962
1971-08-23,1085.60399
1971-08-24,1050.35575
1971-08-25,1204.77376
1971-08-26,1082.17649
1971-08-27,1481.81857
1971-08-28,1436.67212
1971-08-29,1298.20762
1971-08-30,1349.94899
1971-08-31,1219.76694
1971-09-01,1292.67619
1971-09-02,1015.23183
1971-09-03,1085.02659
1971-09-04,930.280923
1971-09-05,1106.24468
1971-09-06,1006.37001
1971-09-07,915.270754
1971-09-08,853.823247
1971-09-09,1221.88848
1971-09-10,783.687536
1971-09-11,919.770161
1971-09-12,823.388411
1971-09-13,765.085116
1971-09-14,770.069981
1971-09-15,710.830543
1971-09-16,626.97296
1971-09-17,779.567485
1971-09-18,493.160164
1971-09-19,657.218365
1971-09-20,670.582852
1971-09-21,673.387958
1971-09-22,748.253926
1971-09-23,696.226625
1971-09-24,723.426163
1971-09-25,644.808976
1971-09-26,546.788621
1971-09-27,475.093636
1971-09-28,658.821397
1971-09-29,654.783999
1971-09-30,665.017506
1971-10-01,762.042451
1971-10-02,775.567568
1971-10-03,714.263581
1971-10-04,697.865044
1971-10-05,553.377687
1971-10-06,966.215869
1971-10-07,678.914224
1971-10-08,630.986295
1971-10-09,610.783058
1971-10-10,640.174911
1971-10-11,591.779002
1971-10-12,630.633895
1971-10-13,961.251067
1971-10-14,463.029878
1971-10-15,669.572549
1971-10-16,733.869596
1971-10-17,955.207402
1971-10-18,864.334132
1971-10-19,668.895136
1971-10-20,590.726418
1971-10-21,617.314334
1971-10-22,1038.17045
1971-10-23,434.571583
1971-10-24,777.244083
1971-10-25,584.381004
1971-10-26,676.846167
1971-10-27,728.951753
1971-10-28,697.509013
1971-10-29,699.335757
1971-10-30,686.548366
1971-10-31,556.719763
1971-11-01,720.141139
1971-11-02,609.825497
1971-11-03,546.294855
1971-11-04,634.662676
1971-11-05,580.007392
1971-11-06,815.375651
1971-11-07,502.283574
1971-11-08,743.618261
1971-11-09,546.624422
1971-11-10,789.294733
1971-11-11,561.078297
1971-11-12,675.139311
1971-11-13,671.04123
1971-11-14,721.717338
1971-11-15,564.423819
1971-11-16,588.88595
1971-11-17,551.663261
1971-11-18,608.703492
1971-11-19,1066.35309
1971-11-20,586.60409
1971-11-21,208.075174
1971-11-22,416.428433
1971-11-23,570.325071
1971-11-24,527.3881
1971-11-25,525.811409
1971-11-26,601.310725
1971-11-27,619.647153
1971-11-28,746.486942
1971-11-29,507.089962
1971-11-30,530.496555